Time,TemperatureF,DewpointF,PressureIn,WindDirection,WindDirectionDegrees,WindSpeedMPH,WindSpeedGustMPH,Humidity,HourlyPrecipIn,Conditions,Clouds,dailyrainin,SoftwareType,DateUTC
2013-01-23 00:02:00,52.8,41.0,30.25,NNE,22,1.9,2.3,66,0.00,,,0.00,Rainwise IP-100,2013-01-23 08:02:00,
2013-01-23 00:07:00,53.4,41.0,30.25,NNE,22,3.3,3.5,64,0.00,,,0.00,Rainwise IP-100,2013-01-23 08:07:00,
2013-01-23 00:12:00,54.2,41.0,30.25,NNE,22,3.0,4.4,62,0.00,,,0.00,Rainwise IP-100,2013-01-23 08:12:00,
2013-01-23 00:17:00,54.5,41.0,30.25,NNE,22,2.1,3.3,61,0.00,,,0.00,Rainwise IP-100,2013-01-23 08:17:00,
2013-01-23 00:22:00,54.5,41.0,30.25,NNE,22,2.6,3.3,61,0.00,,,0.00,Rainwise IP-100,2013-01-23 08:22:00,
2013-01-23 00:27:00,54.6,41.0,30.25,NNE,22,0.0,4.0,60,0.00,,,0.00,Rainwise IP-100,2013-01-23 08:27:00,
2013-01-23 00:32:00,54.8,41.0,30.25,NNE,22,0.0,3.3,59,0.00,,,0.00,Rainwise IP-100,2013-01-23 08:32:00,
2013-01-23 00:37:00,54.8,41.0,30.25,NNE,22,1.6,2.3,59,0.00,,,0.00,Rainwise IP-100,2013-01-23 08:37:00,
2013-01-23 00:42:00,54.6,41.0,30.25,NNE,22,0.0,3.0,60,0.00,,,0.00,Rainwise IP-100,2013-01-23 08:42:00,
2013-01-23 00:47:00,54.5,41.0,30.25,NNE,22,1.9,3.0,60,0.00,,,0.00,Rainwise IP-100,2013-01-23 08:47:00,
2013-01-23 00:52:00,54.5,41.0,30.25,NNE,22,2.1,3.0,60,0.00,,,0.00,Rainwise IP-100,2013-01-23 08:52:00,
2013-01-23 00:57:00,54.5,41.0,30.24,NNE,22,2.3,4.2,61,0.00,,,0.00,Rainwise IP-100,2013-01-23 08:57:00,
2013-01-23 01:02:00,54.6,41.0,30.25,NNE,22,0.0,3.3,60,0.00,,,0.00,Rainwise IP-100,2013-01-23 09:02:00,
2013-01-23 01:08:00,54.5,41.0,30.25,NNE,22,0.0,1.6,61,0.00,,,0.00,Rainwise IP-100,2013-01-23 09:08:00,
2013-01-23 01:13:00,54.1,41.0,30.25,NNE,22,0.0,0.0,62,0.00,,,0.00,Rainwise IP-100,2013-01-23 09:13:00,
2013-01-23 01:18:00,53.6,41.0,30.24,NE,45,4.4,6.1,63,0.00,,,0.00,Rainwise IP-100,2013-01-23 09:18:00,
2013-01-23 01:23:00,53.7,41.0,30.24,ENE,67,4.2,5.6,63,0.00,,,0.00,Rainwise IP-100,2013-01-23 09:23:00,
2013-01-23 01:28:00,54.0,41.0,30.24,NE,45,2.6,4.9,63,0.00,,,0.00,Rainwise IP-100,2013-01-23 09:28:00,
2013-01-23 01:33:00,53.8,41.0,30.24,East,90,1.9,3.0,63,0.00,,,0.00,Rainwise IP-100,2013-01-23 09:33:00,
2013-01-23 01:38:00,53.3,42.0,30.24,East,90,2.3,4.2,65,0.00,,,0.00,Rainwise IP-100,2013-01-23 09:38:00,
2013-01-23 01:43:00,52.8,41.0,30.24,NNW,337,5.4,5.6,66,0.00,,,0.00,Rainwise IP-100,2013-01-23 09:43:00,
2013-01-23 01:48:00,52.5,42.0,30.24,NNE,22,2.8,6.1,67,0.00,,,0.00,Rainwise IP-100,2013-01-23 09:48:00,
2013-01-23 01:53:00,52.6,42.0,30.24,East,90,1.9,4.7,67,0.00,,,0.00,Rainwise IP-100,2013-01-23 09:53:00,
2013-01-23 01:58:00,52.3,42.0,30.23,North,360,3.7,4.9,68,0.00,,,0.00,Rainwise IP-100,2013-01-23 09:58:00,
2013-01-23 02:03:00,51.9,42.0,30.24,NNE,22,0.0,4.7,69,0.00,,,0.00,Rainwise IP-100,2013-01-23 10:03:00,
2013-01-23 02:08:00,51.8,42.0,30.23,ENE,67,4.4,4.9,70,0.00,,,0.00,Rainwise IP-100,2013-01-23 10:08:00,
2013-01-23 02:13:00,51.8,42.0,30.23,ENE,67,0.0,5.1,70,0.00,,,0.00,Rainwise IP-100,2013-01-23 10:13:00,
2013-01-23 02:18:00,51.7,43.0,30.24,East,90,0.0,2.6,71,0.00,,,0.00,Rainwise IP-100,2013-01-23 10:18:00,
2013-01-23 02:23:00,51.7,43.0,30.24,East,90,1.4,1.9,71,0.00,,,0.00,Rainwise IP-100,2013-01-23 10:23:00,
2013-01-23 02:28:00,51.5,43.0,30.23,North,360,4.4,4.7,71,0.00,,,0.00,Rainwise IP-100,2013-01-23 10:28:00,
2013-01-23 02:33:00,51.4,42.0,30.23,NNE,22,4.9,5.4,72,0.00,,,0.00,Rainwise IP-100,2013-01-23 10:33:00,
2013-01-23 02:38:00,51.7,43.0,30.22,NNE,22,5.6,7.0,71,0.00,,,0.00,Rainwise IP-100,2013-01-23 10:38:00,
2013-01-23 02:43:00,52.2,42.0,30.22,NE,45,2.1,6.5,70,0.00,,,0.00,Rainwise IP-100,2013-01-23 10:43:00,
2013-01-23 02:48:00,52.2,42.0,30.23,ESE,112,1.9,3.7,70,0.00,,,0.00,Rainwise IP-100,2013-01-23 10:48:00,
2013-01-23 02:53:00,51.8,43.0,30.23,ENE,67,0.0,3.5,71,0.00,,,0.00,Rainwise IP-100,2013-01-23 10:53:00,
2013-01-23 02:58:00,51.5,43.0,30.23,NNE,22,2.8,4.4,72,0.00,,,0.00,Rainwise IP-100,2013-01-23 10:58:00,
2013-01-23 03:03:00,51.5,43.0,30.21,NNE,22,1.6,5.8,72,0.00,,,0.00,Rainwise IP-100,2013-01-23 11:03:00,
2013-01-23 03:08:00,51.8,43.0,30.22,NNE,22,3.5,5.1,71,0.00,,,0.00,Rainwise IP-100,2013-01-23 11:08:00,
2013-01-23 03:13:00,52.3,42.0,30.21,NNE,22,4.9,5.1,69,0.00,,,0.00,Rainwise IP-100,2013-01-23 11:13:00,
2013-01-23 03:18:00,52.6,42.0,30.21,NE,45,5.8,6.3,68,0.00,,,0.00,Rainwise IP-100,2013-01-23 11:18:00,
2013-01-23 03:23:00,52.5,42.0,30.21,ENE,67,0.0,6.5,68,0.00,,,0.00,Rainwise IP-100,2013-01-23 11:23:00,
2013-01-23 03:28:00,52.3,42.0,30.21,ENE,67,1.2,2.3,69,0.00,,,0.00,Rainwise IP-100,2013-01-23 11:28:00,
2013-01-23 03:33:00,51.8,42.0,30.21,ENE,67,2.1,2.6,70,0.00,,,0.00,Rainwise IP-100,2013-01-23 11:33:00,
2013-01-23 03:38:00,51.4,42.0,30.20,NNE,22,3.3,3.3,72,0.00,,,0.00,Rainwise IP-100,2013-01-23 11:38:00,
2013-01-23 03:43:00,51.3,42.0,30.21,NE,45,3.5,5.8,72,0.00,,,0.00,Rainwise IP-100,2013-01-23 11:43:00,
2013-01-23 03:48:00,51.4,42.0,30.21,NE,45,1.9,4.9,72,0.00,,,0.00,Rainwise IP-100,2013-01-23 11:48:00,
2013-01-23 03:53:00,51.4,42.0,30.21,NE,45,1.6,2.1,72,0.00,,,0.00,Rainwise IP-100,2013-01-23 11:53:00,
2013-01-23 03:58:00,51.3,43.0,30.21,NNE,22,3.3,4.0,73,0.00,,,0.00,Rainwise IP-100,2013-01-23 11:58:00,
2013-01-23 04:03:00,51.5,43.0,30.21,North,360,3.0,4.4,72,0.00,,,0.00,Rainwise IP-100,2013-01-23 12:03:00,
2013-01-23 04:08:00,51.7,43.0,30.20,NNE,22,1.2,5.4,72,0.00,,,0.00,Rainwise IP-100,2013-01-23 12:08:00,
2013-01-23 04:13:00,51.8,43.0,30.20,North,360,1.6,3.0,71,0.00,,,0.00,Rainwise IP-100,2013-01-23 12:13:00,
2013-01-23 04:18:00,51.9,42.0,30.20,North,360,0.0,2.6,69,0.00,,,0.00,Rainwise IP-100,2013-01-23 12:18:00,
2013-01-23 04:23:00,52.3,41.0,30.20,NE,45,1.9,2.8,67,0.00,,,0.00,Rainwise IP-100,2013-01-23 12:23:00,
2013-01-23 04:28:00,52.9,41.0,30.20,NE,45,0.0,4.4,66,0.00,,,0.00,Rainwise IP-100,2013-01-23 12:28:00,
2013-01-23 04:33:00,53.1,41.0,30.20,NE,45,3.5,3.7,65,0.00,,,0.00,Rainwise IP-100,2013-01-23 12:33:00,
2013-01-23 04:38:00,53.1,41.0,30.20,NNW,337,3.7,5.6,65,0.00,,,0.00,Rainwise IP-100,2013-01-23 12:38:00,
2013-01-23 04:43:00,52.8,41.0,30.20,North,360,2.6,5.1,66,0.00,,,0.00,Rainwise IP-100,2013-01-23 12:43:00,
2013-01-23 04:48:00,52.5,42.0,30.20,NNW,337,2.3,4.4,67,0.00,,,0.00,Rainwise IP-100,2013-01-23 12:48:00,
2013-01-23 04:53:00,52.5,42.0,30.20,NNE,22,3.0,4.0,67,0.00,,,0.00,Rainwise IP-100,2013-01-23 12:53:00,
2013-01-23 04:58:00,52.6,41.0,30.19,NNE,22,2.8,3.7,66,0.00,,,0.00,Rainwise IP-100,2013-01-23 12:58:00,
2013-01-23 05:03:00,52.7,41.0,30.18,NNE,22,4.2,4.9,66,0.00,,,0.00,Rainwise IP-100,2013-01-23 13:03:00,
2013-01-23 05:08:00,52.5,41.0,30.17,NNE,22,3.5,5.1,66,0.00,,,0.00,Rainwise IP-100,2013-01-23 13:08:00,
2013-01-23 05:13:00,52.5,41.0,30.18,NNE,22,4.4,5.6,66,0.00,,,0.00,Rainwise IP-100,2013-01-23 13:13:00,
2013-01-23 05:18:00,52.7,41.0,30.18,NE,45,4.9,5.1,66,0.00,,,0.00,Rainwise IP-100,2013-01-23 13:18:00,
2013-01-23 05:23:00,52.8,41.0,30.18,NNE,22,4.2,5.6,65,0.00,,,0.00,Rainwise IP-100,2013-01-23 13:23:00,
2013-01-23 05:28:00,52.7,41.0,30.18,NE,45,2.3,5.6,65,0.00,,,0.00,Rainwise IP-100,2013-01-23 13:28:00,
2013-01-23 05:33:00,52.6,41.0,30.18,ENE,67,0.0,4.2,66,0.00,,,0.00,Rainwise IP-100,2013-01-23 13:33:00,
2013-01-23 05:38:00,52.6,42.0,30.19,ENE,67,1.2,2.6,67,0.00,,,0.00,Rainwise IP-100,2013-01-23 13:38:00,
2013-01-23 05:43:00,52.3,42.0,30.18,East,90,1.2,3.5,68,0.00,,,0.00,Rainwise IP-100,2013-01-23 13:43:00,
2013-01-23 05:48:00,51.8,42.0,30.20,East,90,0.0,2.1,70,0.00,,,0.00,Rainwise IP-100,2013-01-23 13:48:00,
2013-01-23 05:53:00,51.4,42.0,30.19,East,90,1.4,1.6,72,0.00,,,0.00,Rainwise IP-100,2013-01-23 13:53:00,
2013-01-23 05:58:00,51.2,42.0,30.18,NNW,337,3.3,4.7,72,0.00,,,0.00,Rainwise IP-100,2013-01-23 13:58:00,
2013-01-23 06:03:00,51.2,42.0,30.19,SE,135,0.0,4.4,72,0.00,,,0.00,Rainwise IP-100,2013-01-23 14:03:00,
2013-01-23 06:08:00,51.3,42.0,30.19,SSE,157,0.0,1.2,72,0.00,,,0.00,Rainwise IP-100,2013-01-23 14:08:00,
2013-01-23 06:13:00,51.2,43.0,30.19,SSE,157,0.0,0.0,73,0.00,,,0.00,Rainwise IP-100,2013-01-23 14:13:00,
2013-01-23 06:18:00,51.0,43.0,30.19,SSE,157,0.0,0.0,74,0.00,,,0.00,Rainwise IP-100,2013-01-23 14:18:00,
2013-01-23 06:23:00,50.9,43.0,30.19,ENE,67,2.8,3.0,74,0.00,,,0.00,Rainwise IP-100,2013-01-23 14:23:00,
2013-01-23 06:28:00,51.1,43.0,30.19,NE,45,4.7,4.7,73,0.00,,,0.00,Rainwise IP-100,2013-01-23 14:28:00,
2013-01-23 06:33:00,51.2,42.0,30.20,NE,45,1.4,5.8,72,0.00,,,0.00,Rainwise IP-100,2013-01-23 14:33:00,
2013-01-23 06:38:00,51.2,43.0,30.20,East,90,1.2,3.7,73,0.00,,,0.00,Rainwise IP-100,2013-01-23 14:38:00,
2013-01-23 06:43:00,51.2,43.0,30.20,ENE,67,1.2,3.7,73,0.00,,,0.00,Rainwise IP-100,2013-01-23 14:43:00,
2013-01-23 06:48:00,51.0,43.0,30.20,ENE,67,1.9,2.1,74,0.00,,,0.00,Rainwise IP-100,2013-01-23 14:48:00,
2013-01-23 06:53:00,50.9,44.0,30.20,NE,45,2.6,3.3,75,0.00,,,0.00,Rainwise IP-100,2013-01-23 14:53:00,
2013-01-23 06:58:00,50.9,44.0,30.20,NE,45,2.1,2.8,75,0.00,,,0.00,Rainwise IP-100,2013-01-23 14:58:00,
2013-01-23 07:03:00,50.8,44.0,30.20,NE,45,0.0,2.6,76,0.00,,,0.00,Rainwise IP-100,2013-01-23 15:03:00,
2013-01-23 07:08:00,50.9,44.0,30.20,NE,45,1.2,1.2,75,0.00,,,0.00,Rainwise IP-100,2013-01-23 15:08:00,
2013-01-23 07:13:00,51.1,43.0,30.20,NNE,22,2.6,3.0,73,0.00,,,0.00,Rainwise IP-100,2013-01-23 15:13:00,
2013-01-23 07:18:00,51.6,42.0,30.21,NNE,22,1.4,2.8,70,0.00,,,0.00,Rainwise IP-100,2013-01-23 15:18:00,
2013-01-23 07:23:00,52.0,42.0,30.21,NNE,22,0.0,1.9,69,0.00,,,0.00,Rainwise IP-100,2013-01-23 15:23:00,
2013-01-23 07:28:00,52.0,42.0,30.21,NNE,22,0.0,0.0,70,0.00,,,0.00,Rainwise IP-100,2013-01-23 15:28:00,
2013-01-23 07:33:00,51.8,43.0,30.21,NNE,22,0.0,0.0,71,0.00,,,0.00,Rainwise IP-100,2013-01-23 15:33:00,
2013-01-23 07:38:00,51.8,43.0,30.21,NNE,22,0.0,0.0,72,0.00,,,0.00,Rainwise IP-100,2013-01-23 15:38:00,
2013-01-23 07:43:00,51.6,43.0,30.22,NNW,337,0.0,0.0,73,0.00,,,0.00,Rainwise IP-100,2013-01-23 15:43:00,
2013-01-23 07:48:00,51.7,43.0,30.21,NNW,337,1.2,3.3,72,0.00,,,0.00,Rainwise IP-100,2013-01-23 15:48:00,
2013-01-23 07:53:00,52.0,42.0,30.20,North,360,2.6,3.5,68,0.00,,,0.00,Rainwise IP-100,2013-01-23 15:53:00,
2013-01-23 07:58:00,52.6,41.0,30.20,NNW,337,0.0,4.9,65,0.00,,,0.00,Rainwise IP-100,2013-01-23 15:58:00,
2013-01-23 08:03:00,53.1,40.0,30.21,ENE,67,1.4,3.7,62,0.00,,,0.00,Rainwise IP-100,2013-01-23 16:03:00,
2013-01-23 08:08:00,53.2,40.0,30.21,ENE,67,1.4,2.8,63,0.00,,,0.00,Rainwise IP-100,2013-01-23 16:08:00,
2013-01-23 08:13:00,53.1,41.0,30.21,ENE,67,0.0,3.3,64,0.00,,,0.00,Rainwise IP-100,2013-01-23 16:13:00,
2013-01-23 08:18:00,52.8,41.0,30.21,ENE,67,0.0,1.6,65,0.00,,,0.00,Rainwise IP-100,2013-01-23 16:18:00,
2013-01-23 08:23:00,52.6,41.0,30.22,ENE,67,2.1,2.1,66,0.00,,,0.00,Rainwise IP-100,2013-01-23 16:23:00,
2013-01-23 08:28:00,52.6,42.0,30.22,NNE,22,4.2,5.1,67,0.00,,,0.00,Rainwise IP-100,2013-01-23 16:28:00,
2013-01-23 08:33:00,52.8,41.0,30.21,NE,45,3.3,6.8,66,0.00,,,0.00,Rainwise IP-100,2013-01-23 16:33:00,
2013-01-23 08:38:00,53.1,41.0,30.21,ESE,112,3.7,8.4,64,0.00,,,0.00,Rainwise IP-100,2013-01-23 16:38:00,
2013-01-23 08:43:00,53.1,41.0,30.22,ENE,67,3.3,8.9,65,0.00,,,0.00,Rainwise IP-100,2013-01-23 16:43:00,
2013-01-23 08:48:00,52.6,42.0,30.21,NE,45,2.6,10.7,68,0.00,,,0.00,Rainwise IP-100,2013-01-23 16:48:00,
2013-01-23 08:53:00,52.0,43.0,30.21,NE,45,0.0,7.2,71,0.00,,,0.00,Rainwise IP-100,2013-01-23 16:53:00,
2013-01-23 08:58:00,51.8,43.0,30.21,East,90,0.0,7.5,72,0.00,,,0.00,Rainwise IP-100,2013-01-23 16:58:00,
2013-01-23 09:03:00,51.6,43.0,30.23,SSE,157,2.1,4.4,73,0.00,,,0.00,Rainwise IP-100,2013-01-23 17:03:00,
2013-01-23 09:08:00,51.5,43.0,30.22,East,90,2.1,4.2,73,0.00,,,0.00,Rainwise IP-100,2013-01-23 17:08:00,
2013-01-23 09:13:00,51.4,43.0,30.23,ESE,112,2.8,4.2,74,0.00,,,0.00,Rainwise IP-100,2013-01-23 17:13:00,
2013-01-23 09:18:00,51.4,43.0,30.23,SSE,157,1.4,10.0,73,0.00,,,0.00,Rainwise IP-100,2013-01-23 17:18:00,
2013-01-23 09:23:00,51.5,43.0,30.23,NNE,22,1.6,4.7,73,0.00,,,0.00,Rainwise IP-100,2013-01-23 17:23:00,
2013-01-23 09:28:00,51.7,43.0,30.24,NE,45,0.0,5.8,72,0.00,,,0.00,Rainwise IP-100,2013-01-23 17:28:00,
2013-01-23 09:33:00,52.0,42.0,30.24,ENE,67,5.6,6.1,70,0.00,,,0.00,Rainwise IP-100,2013-01-23 17:33:00,
2013-01-23 09:38:00,52.2,42.0,30.24,ENE,67,3.3,8.4,69,0.00,,,0.00,Rainwise IP-100,2013-01-23 17:38:00,
2013-01-23 09:43:00,52.4,42.0,30.24,NE,45,3.5,6.1,69,0.00,,,0.00,Rainwise IP-100,2013-01-23 17:43:00,
2013-01-23 09:48:00,52.5,43.0,30.24,ENE,67,2.1,6.5,69,0.00,,,0.00,Rainwise IP-100,2013-01-23 17:48:00,
2013-01-23 09:53:00,52.6,42.0,30.25,NE,45,1.4,6.8,68,0.00,,,0.00,Rainwise IP-100,2013-01-23 17:53:00,
2013-01-23 09:58:00,52.6,42.0,30.25,NNE,22,3.0,6.3,68,0.00,,,0.00,Rainwise IP-100,2013-01-23 17:58:00,
2013-01-23 10:03:00,52.6,42.0,30.25,NNW,337,5.4,7.9,68,0.00,,,0.00,Rainwise IP-100,2013-01-23 18:03:00,
2013-01-23 10:08:00,52.7,42.0,30.25,ESE,112,0.0,7.7,68,0.00,,,0.00,Rainwise IP-100,2013-01-23 18:08:00,
2013-01-23 10:13:00,52.9,41.0,30.25,NE,45,5.4,8.2,66,0.00,,,0.00,Rainwise IP-100,2013-01-23 18:13:00,
2013-01-23 10:18:00,53.2,41.0,30.25,NE,45,2.6,8.9,64,0.00,,,0.00,Rainwise IP-100,2013-01-23 18:18:00,
2013-01-23 10:23:00,53.4,41.0,30.25,ENE,67,0.0,5.6,63,0.00,,,0.00,Rainwise IP-100,2013-01-23 18:23:00,
2013-01-23 10:28:00,53.5,41.0,30.25,NNE,22,2.1,4.2,63,0.00,,,0.00,Rainwise IP-100,2013-01-23 18:28:00,
2013-01-23 10:33:00,53.6,41.0,30.25,NE,45,2.1,3.7,63,0.00,,,0.00,Rainwise IP-100,2013-01-23 18:33:00,
2013-01-23 10:38:00,53.5,42.0,30.26,East,90,2.3,3.7,65,0.00,,,0.00,Rainwise IP-100,2013-01-23 18:38:00,
2013-01-23 10:43:00,53.4,42.0,30.26,NNE,22,2.3,5.1,66,0.00,,,0.00,Rainwise IP-100,2013-01-23 18:43:00,
2013-01-23 10:48:00,53.3,42.0,30.26,NNE,22,2.8,4.2,66,0.00,,,0.00,Rainwise IP-100,2013-01-23 18:48:00,
2013-01-23 10:53:00,53.3,42.0,30.26,NE,45,2.8,4.0,65,0.00,,,0.00,Rainwise IP-100,2013-01-23 18:53:00,
2013-01-23 10:58:00,53.3,41.0,30.26,NNE,22,2.6,4.9,64,0.00,,,0.00,Rainwise IP-100,2013-01-23 18:58:00,
2013-01-23 11:03:00,53.4,41.0,30.27,NE,45,3.7,6.1,63,0.00,,,0.00,Rainwise IP-100,2013-01-23 19:03:00,
2013-01-23 11:08:00,53.6,40.0,30.26,NNE,22,4.0,6.5,61,0.00,,,0.00,Rainwise IP-100,2013-01-23 19:08:00,
2013-01-23 11:13:00,53.9,40.0,30.25,NE,45,6.5,6.5,59,0.00,,,0.00,Rainwise IP-100,2013-01-23 19:13:00,
2013-01-23 11:18:00,54.1,39.0,30.25,NNE,22,4.9,6.8,58,0.00,,,0.00,Rainwise IP-100,2013-01-23 19:18:00,
2013-01-23 11:23:00,54.1,39.0,30.26,NNE,22,0.0,5.8,58,0.00,,,0.00,Rainwise IP-100,2013-01-23 19:23:00,
2013-01-23 11:28:00,54.2,39.0,30.26,NNW,337,3.3,5.8,58,0.00,,,0.00,Rainwise IP-100,2013-01-23 19:28:00,
2013-01-23 11:33:00,54.4,40.0,30.25,North,360,2.3,6.1,57,0.00,,,0.00,Rainwise IP-100,2013-01-23 19:33:00,
2013-01-23 11:38:00,54.6,40.0,30.25,North,360,3.3,6.5,57,0.00,,,0.00,Rainwise IP-100,2013-01-23 19:38:00,
2013-01-23 11:43:00,54.9,39.0,30.25,NE,45,1.4,4.9,55,0.00,,,0.00,Rainwise IP-100,2013-01-23 19:43:00,
2013-01-23 11:48:00,55.3,39.0,30.24,ESE,112,3.5,4.4,55,0.00,,,0.00,Rainwise IP-100,2013-01-23 19:48:00,
2013-01-23 11:53:00,55.7,40.0,30.24,NNE,22,2.1,5.1,55,0.00,,,0.00,Rainwise IP-100,2013-01-23 19:53:00,
2013-01-23 11:58:00,56.2,39.0,30.24,NNE,22,0.0,5.1,53,0.00,,,0.00,Rainwise IP-100,2013-01-23 19:58:00,
2013-01-23 12:03:00,56.4,39.0,30.24,SE,135,1.9,2.8,53,0.00,,,0.00,Rainwise IP-100,2013-01-23 20:03:00,
2013-01-23 12:08:00,56.2,40.0,30.24,NNE,22,1.9,5.6,56,0.00,,,0.00,Rainwise IP-100,2013-01-23 20:08:00,
2013-01-23 12:13:00,55.8,42.0,30.24,ESE,112,1.9,4.2,60,0.00,,,0.00,Rainwise IP-100,2013-01-23 20:13:00,
2013-01-23 12:18:00,55.4,43.0,30.23,SE,135,2.3,5.4,64,0.00,,,0.00,Rainwise IP-100,2013-01-23 20:18:00,
2013-01-23 12:23:00,54.9,44.0,30.23,NE,45,2.3,6.8,67,0.00,,,0.00,Rainwise IP-100,2013-01-23 20:23:00,
2013-01-23 12:28:00,54.6,44.0,30.23,ENE,67,0.0,5.4,68,0.00,,,0.00,Rainwise IP-100,2013-01-23 20:28:00,
2013-01-23 12:33:00,54.5,44.0,30.24,ESE,112,0.0,7.0,68,0.00,,,0.00,Rainwise IP-100,2013-01-23 20:33:00,
2013-01-23 12:38:00,54.4,44.0,30.24,ENE,67,0.0,6.5,68,0.00,,,0.00,Rainwise IP-100,2013-01-23 20:38:00,
2013-01-23 12:43:00,54.0,44.0,30.24,ENE,67,0.0,1.9,68,0.00,,,0.00,Rainwise IP-100,2013-01-23 20:43:00,
2013-01-23 12:48:00,53.8,44.0,30.24,ENE,67,1.9,2.3,70,0.00,,,0.00,Rainwise IP-100,2013-01-23 20:48:00,
2013-01-23 12:53:00,53.4,45.0,30.24,NE,45,1.6,5.1,73,0.00,,,0.00,Rainwise IP-100,2013-01-23 20:53:00,
2013-01-23 12:58:00,52.9,45.0,30.23,ENE,67,1.9,4.4,75,0.00,,,0.00,Rainwise IP-100,2013-01-23 20:58:00,
2013-01-23 13:03:00,52.5,46.0,30.24,ENE,67,2.8,4.4,77,0.06,,,0.01,Rainwise IP-100,2013-01-23 21:03:00,
2013-01-23 13:08:00,52.3,45.0,30.24,NE,45,3.5,5.6,77,0.06,,,0.01,Rainwise IP-100,2013-01-23 21:08:00,
2013-01-23 13:13:00,52.0,45.0,30.24,NE,45,4.7,5.4,77,0.00,,,0.01,Rainwise IP-100,2013-01-23 21:13:00,
2013-01-23 13:18:00,52.0,45.0,30.23,ENE,67,2.1,5.4,76,0.00,,,0.01,Rainwise IP-100,2013-01-23 21:18:00,
2013-01-23 13:23:00,52.0,44.0,30.23,NE,45,4.7,6.5,74,0.00,,,0.01,Rainwise IP-100,2013-01-23 21:23:00,
2013-01-23 13:28:00,52.0,43.0,30.23,NNE,22,4.2,7.2,73,0.00,,,0.01,Rainwise IP-100,2013-01-23 21:28:00,
2013-01-23 13:33:00,52.1,43.0,30.23,ENE,67,1.9,7.5,72,0.00,,,0.01,Rainwise IP-100,2013-01-23 21:33:00,
2013-01-23 13:38:00,52.1,43.0,30.23,NNE,22,0.0,4.9,73,0.00,,,0.01,Rainwise IP-100,2013-01-23 21:38:00,
2013-01-23 13:43:00,52.0,44.0,30.23,NE,45,2.1,3.7,75,0.00,,,0.02,Rainwise IP-100,2013-01-23 21:43:00,
2013-01-23 13:48:00,51.8,45.0,30.23,NNE,22,2.1,5.8,76,0.12,,,0.03,Rainwise IP-100,2013-01-23 21:48:00,
2013-01-23 13:53:00,51.4,44.0,30.23,NNW,337,4.0,4.2,77,0.18,,,0.04,Rainwise IP-100,2013-01-23 21:53:00,
2013-01-23 13:58:00,51.0,45.0,30.23,NNE,22,4.2,6.1,78,0.06,,,0.04,Rainwise IP-100,2013-01-23 21:58:00,
2013-01-23 14:03:00,51.0,45.0,30.23,NNW,337,1.6,4.7,78,0.00,,,0.04,Rainwise IP-100,2013-01-23 22:03:00,
2013-01-23 14:08:00,51.0,45.0,30.24,NNE,22,0.0,4.7,78,0.00,,,0.04,Rainwise IP-100,2013-01-23 22:08:00,
2013-01-23 14:13:00,51.2,45.0,30.24,WSW,247,2.8,4.4,78,0.00,,,0.04,Rainwise IP-100,2013-01-23 22:13:00,
2013-01-23 14:18:00,51.5,45.0,30.25,SSE,157,2.6,3.7,78,0.00,,,0.04,Rainwise IP-100,2013-01-23 22:18:00,
2013-01-23 14:23:00,51.6,45.0,30.24,WNW,292,1.2,4.4,76,0.00,,,0.04,Rainwise IP-100,2013-01-23 22:23:00,
2013-01-23 14:28:00,51.5,44.0,30.25,WSW,247,3.7,7.7,75,0.06,,,0.05,Rainwise IP-100,2013-01-23 22:28:00,
2013-01-23 14:33:00,51.2,44.0,30.25,WNW,292,4.7,9.3,77,0.18,,,0.08,Rainwise IP-100,2013-01-23 22:33:00,
2013-01-23 14:38:00,50.7,45.0,30.25,WNW,292,3.5,6.8,80,0.24,,,0.09,Rainwise IP-100,2013-01-23 22:38:00,
2013-01-23 14:43:00,50.5,46.0,30.25,SW,225,2.8,5.8,83,0.18,,,0.10,Rainwise IP-100,2013-01-23 22:43:00,
2013-01-23 14:48:00,50.6,47.0,30.25,ESE,112,1.6,4.9,86,0.06,,,0.10,Rainwise IP-100,2013-01-23 22:48:00,
2013-01-23 14:53:00,50.5,47.0,30.27,SSE,157,2.8,4.4,87,0.00,,,0.10,Rainwise IP-100,2013-01-23 22:53:00,
2013-01-23 14:58:00,50.3,47.5,30.27,SW,225,3.3,5.4,88,0.00,,,0.10,Rainwise IP-100,2013-01-23 22:58:00,
2013-01-23 15:03:00,50.2,47.0,30.27,WSW,247,1.6,5.4,88,0.12,,,0.12,Rainwise IP-100,2013-01-23 23:03:00,
2013-01-23 15:08:00,50.2,47.0,30.26,NW,315,1.6,3.3,89,0.12,,,0.12,Rainwise IP-100,2013-01-23 23:08:00,
2013-01-23 15:13:00,50.2,47.0,30.26,WNW,292,2.1,5.6,90,0.00,,,0.12,Rainwise IP-100,2013-01-23 23:13:00,
2013-01-23 15:18:00,50.3,48.0,30.26,WSW,247,0.0,5.6,91,0.00,,,0.12,Rainwise IP-100,2013-01-23 23:18:00,
2013-01-23 15:23:00,50.6,48.0,30.25,West,270,2.6,4.7,91,0.06,,,0.13,Rainwise IP-100,2013-01-23 23:23:00,
2013-01-23 15:28:00,51.0,49.0,30.26,WSW,247,0.0,4.0,92,0.06,,,0.13,Rainwise IP-100,2013-01-23 23:28:00,
2013-01-23 15:33:00,51.6,49.0,30.25,West,270,4.0,4.9,91,0.00,,,0.13,Rainwise IP-100,2013-01-23 23:33:00,
2013-01-23 15:38:00,52.0,49.0,30.27,SW,225,5.6,6.1,90,0.00,,,0.13,Rainwise IP-100,2013-01-23 23:38:00,
2013-01-23 15:43:00,52.1,49.0,30.27,SW,225,3.5,7.2,90,0.00,,,0.13,Rainwise IP-100,2013-01-23 23:43:00,
2013-01-23 15:48:00,51.9,49.0,30.26,WNW,292,3.7,4.0,89,0.00,,,0.13,Rainwise IP-100,2013-01-23 23:48:00,
2013-01-23 15:53:00,51.9,49.0,30.25,WNW,292,3.5,6.1,89,0.00,,,0.13,Rainwise IP-100,2013-01-23 23:53:00,
2013-01-23 15:58:00,52.0,49.0,30.25,WNW,292,3.5,5.1,89,0.00,,,0.13,Rainwise IP-100,2013-01-23 23:58:00,
2013-01-23 16:03:00,52.2,48.0,30.25,WSW,247,1.6,5.4,88,0.00,,,0.13,Rainwise IP-100,2013-01-24 00:03:00,
2013-01-23 16:08:00,52.4,48.0,30.25,NNW,337,2.8,4.2,88,0.00,,,0.13,Rainwise IP-100,2013-01-24 00:08:00,
2013-01-23 16:13:00,52.5,49.0,30.25,North,360,3.3,4.2,88,0.00,,,0.13,Rainwise IP-100,2013-01-24 00:13:00,
2013-01-23 16:18:00,52.5,50.0,30.25,North,360,2.3,4.9,89,0.00,,,0.13,Rainwise IP-100,2013-01-24 00:18:00,
2013-01-23 16:23:00,52.6,50.0,30.25,NNW,337,3.0,5.1,89,0.00,,,0.13,Rainwise IP-100,2013-01-24 00:23:00,
2013-01-23 16:28:00,52.5,50.0,30.25,NNW,337,3.3,5.8,90,0.00,,,0.13,Rainwise IP-100,2013-01-24 00:28:00,
2013-01-23 16:33:00,52.4,49.0,30.25,NW,315,4.2,6.1,90,0.00,,,0.13,Rainwise IP-100,2013-01-24 00:33:00,
2013-01-23 16:38:00,52.4,49.0,30.25,WNW,292,2.6,6.5,89,0.00,,,0.13,Rainwise IP-100,2013-01-24 00:38:00,
2013-01-23 16:43:00,52.7,50.0,30.26,WNW,292,1.2,3.5,89,0.00,,,0.13,Rainwise IP-100,2013-01-24 00:43:00,
2013-01-23 16:48:00,52.9,49.0,30.25,WSW,247,0.0,3.5,88,0.00,,,0.13,Rainwise IP-100,2013-01-24 00:48:00,
2013-01-23 16:53:00,53.0,49.0,30.26,SSW,202,0.0,0.0,88,0.00,,,0.13,Rainwise IP-100,2013-01-24 00:53:00,
2013-01-23 16:58:00,52.8,50.0,30.26,NNE,22,2.1,2.8,89,0.00,,,0.13,Rainwise IP-100,2013-01-24 00:58:00,
2013-01-23 17:03:00,52.4,49.0,30.26,NNE,22,3.7,3.7,90,0.00,,,0.13,Rainwise IP-100,2013-01-24 01:03:00,
2013-01-23 17:08:00,52.0,49.0,30.26,North,360,3.7,4.2,91,0.00,,,0.13,Rainwise IP-100,2013-01-24 01:08:00,
2013-01-23 17:13:00,51.7,50.0,30.26,North,360,2.6,5.1,92,0.00,,,0.13,Rainwise IP-100,2013-01-24 01:13:00,
2013-01-23 17:18:00,51.6,50.0,30.26,North,360,2.1,3.7,92,0.00,,,0.13,Rainwise IP-100,2013-01-24 01:18:00,
2013-01-23 17:23:00,51.5,50.0,30.27,North,360,1.6,3.0,92,0.00,,,0.13,Rainwise IP-100,2013-01-24 01:23:00,
2013-01-23 17:28:00,51.5,50.0,30.26,North,360,2.8,4.7,93,0.00,,,0.13,Rainwise IP-100,2013-01-24 01:28:00,
2013-01-23 17:33:00,51.4,49.0,30.26,NNE,22,2.6,4.7,93,0.00,,,0.13,Rainwise IP-100,2013-01-24 01:33:00,
2013-01-23 17:38:00,51.2,49.0,30.27,NNE,22,5.6,5.6,93,0.00,,,0.13,Rainwise IP-100,2013-01-24 01:38:00,
2013-01-23 17:43:00,50.9,49.0,30.27,North,360,5.4,8.4,93,0.00,,,0.13,Rainwise IP-100,2013-01-24 01:43:00,
2013-01-23 17:48:00,50.6,48.0,30.27,NNE,22,3.7,8.2,93,0.00,,,0.13,Rainwise IP-100,2013-01-24 01:48:00,
2013-01-23 17:53:00,50.4,48.0,30.27,NNE,22,4.4,6.1,93,0.00,,,0.13,Rainwise IP-100,2013-01-24 01:53:00,
2013-01-23 17:58:00,50.2,47.5,30.28,NNE,22,4.7,7.2,93,0.00,,,0.13,Rainwise IP-100,2013-01-24 01:58:00,
2013-01-23 18:03:00,50.0,47.5,30.28,NNE,22,3.7,7.2,93,0.00,,,0.13,Rainwise IP-100,2013-01-24 02:03:00,
2013-01-23 18:08:00,50.0,47.5,30.28,NNE,22,2.8,7.7,93,0.00,,,0.13,Rainwise IP-100,2013-01-24 02:08:00,
2013-01-23 18:13:00,50.0,48.0,30.28,NNE,22,2.8,7.2,94,0.00,,,0.13,Rainwise IP-100,2013-01-24 02:13:00,
2013-01-23 18:18:00,50.0,48.0,30.28,NNW,337,4.7,8.6,94,0.00,,,0.13,Rainwise IP-100,2013-01-24 02:18:00,
2013-01-23 18:23:00,50.0,48.0,30.27,NNW,337,3.5,10.0,94,0.00,,,0.13,Rainwise IP-100,2013-01-24 02:23:00,
2013-01-23 18:28:00,50.2,47.5,30.27,NW,315,4.2,9.3,93,0.00,,,0.13,Rainwise IP-100,2013-01-24 02:28:00,
2013-01-23 18:33:00,50.4,48.0,30.28,NNE,22,4.4,7.7,93,0.00,,,0.13,Rainwise IP-100,2013-01-24 02:33:00,
2013-01-23 18:38:00,50.6,48.0,30.27,North,360,2.8,7.7,93,0.00,,,0.13,Rainwise IP-100,2013-01-24 02:38:00,
2013-01-23 18:43:00,50.7,48.0,30.26,NNW,337,3.7,7.2,93,0.00,,,0.13,Rainwise IP-100,2013-01-24 02:43:00,
2013-01-23 18:48:00,50.9,49.0,30.27,NNE,22,4.9,6.1,92,0.00,,,0.13,Rainwise IP-100,2013-01-24 02:48:00,
2013-01-23 18:53:00,51.1,49.0,30.27,ENE,67,1.9,5.8,92,0.00,,,0.13,Rainwise IP-100,2013-01-24 02:53:00,
2013-01-23 18:58:00,51.1,49.0,30.27,ENE,67,2.1,3.5,92,0.00,,,0.13,Rainwise IP-100,2013-01-24 02:58:00,
2013-01-23 19:03:00,51.1,49.0,30.28,ESE,112,0.0,3.3,92,0.00,,,0.13,Rainwise IP-100,2013-01-24 03:03:00,
2013-01-23 19:08:00,51.0,49.0,30.28,ESE,112,1.4,2.1,93,0.00,,,0.13,Rainwise IP-100,2013-01-24 03:08:00,
2013-01-23 19:13:00,50.9,49.0,30.28,ESE,112,2.1,3.3,93,0.00,,,0.13,Rainwise IP-100,2013-01-24 03:13:00,
2013-01-23 19:18:00,50.9,49.0,30.28,ESE,112,0.0,4.2,93,0.00,,,0.13,Rainwise IP-100,2013-01-24 03:18:00,
2013-01-23 19:23:00,50.7,48.0,30.28,ENE,67,0.0,3.3,93,0.00,,,0.13,Rainwise IP-100,2013-01-24 03:23:00,
2013-01-23 19:28:00,50.7,48.0,30.28,NE,45,2.1,3.0,93,0.00,,,0.13,Rainwise IP-100,2013-01-24 03:28:00,
2013-01-23 19:33:00,50.6,48.0,30.28,NE,45,1.6,3.7,93,0.00,,,0.13,Rainwise IP-100,2013-01-24 03:33:00,
2013-01-23 19:38:00,50.6,49.0,30.28,NE,45,1.2,2.8,94,0.00,,,0.13,Rainwise IP-100,2013-01-24 03:38:00,
2013-01-23 19:43:00,50.7,49.0,30.28,NE,45,0.0,1.4,94,0.00,,,0.13,Rainwise IP-100,2013-01-24 03:43:00,
2013-01-23 19:48:00,50.7,49.0,30.28,NE,45,0.0,0.0,94,0.00,,,0.13,Rainwise IP-100,2013-01-24 03:48:00,
2013-01-23 19:53:00,50.7,49.0,30.29,SSE,157,1.6,3.3,94,0.00,,,0.13,Rainwise IP-100,2013-01-24 03:53:00,
2013-01-23 19:58:00,50.6,49.0,30.29,SSE,157,0.0,2.8,94,0.00,,,0.13,Rainwise IP-100,2013-01-24 03:58:00,
2013-01-23 20:03:00,50.4,49.0,30.29,SSE,157,0.0,1.2,94,0.00,,,0.13,Rainwise IP-100,2013-01-24 04:03:00,
2013-01-23 20:08:00,50.3,49.0,30.29,SSE,157,0.0,0.0,94,0.00,,,0.13,Rainwise IP-100,2013-01-24 04:08:00,
2013-01-23 20:13:00,50.3,49.0,30.30,NE,45,2.1,3.5,94,0.00,,,0.13,Rainwise IP-100,2013-01-24 04:13:00,
2013-01-23 20:18:00,50.4,49.0,30.30,NNE,22,1.6,3.7,94,0.00,,,0.13,Rainwise IP-100,2013-01-24 04:18:00,
2013-01-23 20:23:00,50.5,49.0,30.30,NNE,22,1.6,3.3,95,0.00,,,0.13,Rainwise IP-100,2013-01-24 04:23:00,
2013-01-23 20:28:00,50.5,49.0,30.30,NE,45,3.3,6.5,94,0.00,,,0.13,Rainwise IP-100,2013-01-24 04:28:00,
2013-01-23 20:33:00,50.5,49.0,30.30,NNE,22,4.7,6.5,94,0.00,,,0.14,Rainwise IP-100,2013-01-24 04:33:00,
2013-01-23 20:38:00,50.5,49.0,30.29,North,360,3.3,5.4,94,0.06,,,0.14,Rainwise IP-100,2013-01-24 04:38:00,
2013-01-23 20:43:00,50.3,49.0,30.29,NE,45,2.1,4.0,95,0.06,,,0.14,Rainwise IP-100,2013-01-24 04:43:00,
2013-01-23 20:48:00,50.3,49.0,30.29,NNE,22,3.5,4.0,95,0.00,,,0.14,Rainwise IP-100,2013-01-24 04:48:00,
2013-01-23 20:53:00,50.3,49.0,30.28,NNE,22,5.4,6.1,95,0.00,,,0.14,Rainwise IP-100,2013-01-24 04:53:00,
2013-01-23 20:58:00,50.4,49.0,30.28,NNE,22,3.3,7.7,95,0.00,,,0.14,Rainwise IP-100,2013-01-24 04:58:00,
2013-01-23 21:00:00,50.4,49.0,30.29,North,360,3.7,7.7,95,0.00,,,0.14,Rainwise IP-100,2013-01-24 05:00:00,
2013-01-23 21:05:00,50.6,49.0,30.28,North,360,3.0,6.5,95,0.00,,,0.14,Rainwise IP-100,2013-01-24 05:05:00,
2013-01-23 21:10:00,50.8,50.0,30.28,NE,45,3.3,4.4,94,0.00,,,0.14,Rainwise IP-100,2013-01-24 05:10:00,
2013-01-23 21:15:00,50.8,50.0,30.29,NNE,22,3.7,4.9,94,0.00,,,0.14,Rainwise IP-100,2013-01-24 05:15:00,
2013-01-23 21:20:00,50.7,49.0,30.29,NNE,22,4.2,5.4,94,0.00,,,0.14,Rainwise IP-100,2013-01-24 05:20:00,
2013-01-23 21:25:00,50.6,49.0,30.29,North,360,4.0,6.1,94,0.00,,,0.14,Rainwise IP-100,2013-01-24 05:25:00,
2013-01-23 21:30:00,50.5,49.0,30.29,NNE,22,4.0,6.5,94,0.00,,,0.14,Rainwise IP-100,2013-01-24 05:30:00,
2013-01-23 21:35:00,50.4,49.0,30.28,NNE,22,2.6,6.5,94,0.00,,,0.14,Rainwise IP-100,2013-01-24 05:35:00,
2013-01-23 21:40:00,50.4,49.0,30.29,NE,45,3.7,5.8,94,0.00,,,0.14,Rainwise IP-100,2013-01-24 05:40:00,
2013-01-23 21:45:00,50.4,49.0,30.30,ENE,67,2.3,5.1,94,0.00,,,0.14,Rainwise IP-100,2013-01-24 05:45:00,
2013-01-23 21:50:00,50.3,49.0,30.29,NNW,337,3.5,4.2,94,0.00,,,0.14,Rainwise IP-100,2013-01-24 05:50:00,
2013-01-23 21:55:00,50.2,48.0,30.29,NE,45,4.0,4.4,94,0.00,,,0.14,Rainwise IP-100,2013-01-24 05:55:00,
2013-01-23 22:00:00,50.1,48.0,30.30,NE,45,2.8,4.9,94,0.00,,,0.14,Rainwise IP-100,2013-01-24 06:00:00,
2013-01-23 22:06:00,50.1,48.0,30.29,NE,45,0.0,5.4,94,0.00,,,0.14,Rainwise IP-100,2013-01-24 06:06:00,
2013-01-23 22:11:00,50.1,48.0,30.30,NE,45,4.0,5.1,94,0.00,,,0.14,Rainwise IP-100,2013-01-24 06:11:00,
2013-01-23 22:16:00,50.1,48.0,30.29,NNW,337,4.9,7.2,94,0.00,,,0.14,Rainwise IP-100,2013-01-24 06:16:00,
2013-01-23 22:21:00,50.2,48.0,30.29,NNW,337,6.3,7.0,95,0.00,,,0.14,Rainwise IP-100,2013-01-24 06:21:00,
2013-01-23 22:26:00,50.5,49.0,30.30,NNE,22,0.0,6.8,95,0.00,,,0.14,Rainwise IP-100,2013-01-24 06:26:00,
2013-01-23 22:31:00,50.8,50.0,30.30,SSE,157,2.3,4.2,94,0.06,,,0.15,Rainwise IP-100,2013-01-24 06:31:00,
2013-01-23 22:36:00,50.7,49.0,30.29,NNW,337,4.7,5.1,94,0.06,,,0.15,Rainwise IP-100,2013-01-24 06:36:00,
2013-01-23 22:41:00,50.5,49.0,30.30,South,180,2.6,8.2,94,0.00,,,0.15,Rainwise IP-100,2013-01-24 06:41:00,
2013-01-23 22:46:00,50.4,49.0,30.29,NNW,337,4.0,7.0,95,0.00,,,0.15,Rainwise IP-100,2013-01-24 06:46:00,
2013-01-23 22:51:00,50.3,49.0,30.30,NW,315,1.9,5.1,95,0.00,,,0.15,Rainwise IP-100,2013-01-24 06:51:00,
2013-01-23 22:56:00,50.3,50.0,30.31,SSE,157,0.0,4.4,96,0.00,,,0.15,Rainwise IP-100,2013-01-24 06:56:00,
2013-01-23 23:01:00,50.4,50.0,30.30,North,360,2.3,2.8,96,0.00,,,0.15,Rainwise IP-100,2013-01-24 07:01:00,
2013-01-23 23:06:00,50.4,50.0,30.30,NE,45,1.6,5.4,96,0.00,,,0.15,Rainwise IP-100,2013-01-24 07:06:00,
2013-01-23 23:11:00,50.4,50.0,30.30,NE,45,0.0,3.0,96,0.00,,,0.15,Rainwise IP-100,2013-01-24 07:11:00,
2013-01-23 23:16:00,50.4,50.0,30.30,North,360,1.4,2.6,96,0.00,,,0.15,Rainwise IP-100,2013-01-24 07:16:00,
2013-01-23 23:21:00,50.1,49.0,30.30,ENE,67,1.2,5.8,96,0.00,,,0.15,Rainwise IP-100,2013-01-24 07:21:00,
2013-01-23 23:26:00,49.9,49.0,30.30,ESE,112,0.0,10.0,96,0.00,,,0.15,Rainwise IP-100,2013-01-24 07:26:00,
2013-01-23 23:31:00,49.8,49.0,30.30,SE,135,0.0,2.8,96,0.00,,,0.15,Rainwise IP-100,2013-01-24 07:31:00,
2013-01-23 23:36:00,49.7,49.0,30.29,NE,45,3.0,5.4,96,0.00,,,0.15,Rainwise IP-100,2013-01-24 07:36:00,
2013-01-23 23:41:00,49.6,49.0,30.29,NNW,337,3.0,5.1,96,0.00,,,0.15,Rainwise IP-100,2013-01-24 07:41:00,
2013-01-23 23:46:00,49.6,49.0,30.29,SSE,157,3.3,5.1,96,0.00,,,0.15,Rainwise IP-100,2013-01-24 07:46:00,
2013-01-23 23:51:00,49.7,49.0,30.29,NNE,22,1.4,6.3,97,0.00,,,0.15,Rainwise IP-100,2013-01-24 07:51:00,
2013-01-23 23:56:00,49.7,49.0,30.28,SSE,157,4.2,6.3,97,0.00,,,0.15,Rainwise IP-100,2013-01-24 07:56:00,